Home > Weather > Aarau > Past weeks

Flag for Switzerland Past Weather in Aarau, Aargau, Switzerland — Yesterday and Last 2 Weeks

Now
49 °F

Cool.


Feels Like: 49 °F
Forecast: 48 / 76 °F
Wind: 2 mph from Northeast

Location: Wynau

Current Time: May 25, 2016 at 9:28:05 AM

Latest Report: May 25, 2016 at 8:00 AM


Visibility: N/A

Pressure: 29.98 "Hg

Humidity: 94%

Dew Point: 47 °F

Location of AarauLocation

Past Weather in Aarau — Graph

°F

Aarau Temperature Yesterday

Maximum temperature yesterday: 58 °F (at 6:00 PM)
Minimum temperature yesterday: 46 °F (at 4:00 AM)
Average temperature yesterday: 52 °F

High & Low Weather Summary for the Past Weeks

 TemperatureHumidityPressure
High77 °F (May 22, 3:00 PM)100% (May 12, 5:00 PM)30.24 "Hg (May 12, 5:00 PM)
Low40 °F (May 16, 6:00 AM)34% (May 21, 7:00 PM)29.50 "Hg (May 11, 6:00 PM)
Average54 °F80%29.91 "Hg
* Reported May 10 8:00 AM — May 25 8:00 AM, Aarau, Weather by CustomWeather, © 2016

Note: Actual official high and low records may vary slightly from our data, if they occured in-between our weather recording intervals... More about our weather records

Advertising

Aarau Weather History for the Previous 24 Hours

Scroll right to see more
 ConditionsComfort  
Time TempWeatherWind HumidityBarometerVisibility
8:00 AM
Wed, May 25
49 °FCool.2 mph94%29.98 "HgN/A
7:00 AM47 °FCool.1 mph96%29.97 "HgN/A
6:00 AM46 °FCool.1 mph97%29.97 "HgN/A
5:00 AM44 °FQuite cool.No wind100%29.97 "HgN/A
4:40 AM44 °FQuite cool.No wind100%29.97 "HgN/A
4:00 AM44 °FQuite cool.No wind100%29.97 "HgN/A
3:00 AM46 °FCool.1 mph98%29.97 "HgN/A
2:00 AM46 °FCool.1 mph98%29.98 "HgN/A
1:00 AM47 °FCool.No wind97%29.97 "HgN/A
12:00 AM49 °FCool.1 mph95%29.98 "HgN/A
11:00 PM
Tue, May 24
52 °FCool.1 mph85%29.96 "HgN/A
10:00 PM52 °FCool.No wind91%29.97 "HgN/A
9:00 PM54 °FCool.3 mph79%29.96 "HgN/A
8:00 PM56 °FCool.6 mph68%29.94 "HgN/A
7:00 PM57 °FCool.3 mph64%29.94 "HgN/A
6:00 PM58 °FCool.3 mph60%29.94 "HgN/A
5:00 PM58 °FRefreshingly cool.3 mph60%29.96 "HgN/A
4:00 PM57 °FCool.3 mph63%29.97 "HgN/A
3:00 PM56 °FCool.2 mph69%29.99 "HgN/A
2:00 PM56 °FCool.3 mph68%29.99 "HgN/A
1:00 PM56 °FCool.2 mph65%30.00 "HgN/A
12:00 PM54 °FCool.2 mph69%30.01 "HgN/A
11:00 AM54 °FCool.6 mph70%30.01 "HgN/A
10:00 AM54 °FCool.5 mph85%30.02 "HgN/A
9:00 AM50 °FCool.6 mph88%30.04 "HgN/A
Weather by CustomWeather, © 2016

See weather overviewHow to use our weather pages